This demonstration page uses our WeatherBlox Daily Observations layout. Learn more.

Left ArrowRight Arrow

38.83388, -104.82136

Hourly Observations for January 14, 2022

Temp ( °F °C ) Dew Point ( °F °C ) Humidity (%) Winds ( mph kmh ) Pressure ( in mb ) Visibility ( mi km ) Precip ( " mm )
12:54 am 00:54 Mostly Cloudy 40 4.4 19 -7.2 43 43 NNE 7 11 29.83 1010 10 16 0.00 0.00
1:54 am 01:54 Mostly Cloudy 50 10 13 -10.6 22 22 N 14 22 29.78 1008 10 16 0.00 0.00
2:54 am 02:54 Mostly Cloudy 48 8.9 12 -11.1 23 23 N 15 24 29.78 1008 10 16 0.00 0.00
3:54 am 03:54 Mostly Cloudy 52 11.1 13 -10.6 21 21 NNW 13 20 29.76 1008 10 16 0.00 0.00
4:54 am 04:54 Mostly Cloudy 48 8.9 13 -10.6 24 24 NNW 14 22 29.81 1010 10 16 0.00 0.00
5:54 am 05:54 Mostly Cloudy 45 7.2 13 -10.6 27 27 NNE 13 20 29.88 1012 10 16 0.00 0.00
6:54 am 06:54 Partly Cloudy 43 6.1 15 -9.4 32 32 N 20 31 29.95 1014 10 16 0.00 0.00
7:20 am 07:20 Partly Cloudy 43 6.1 17 -8.3 35 35 NNW 25 41 29.95 1014 10 16 0.00 0.00
7:54 am 07:54 Mostly Sunny 42 5.6 19 -7.2 40 40 NNW 26 43 30.02 1017 10 16 0.00 0.00
8:54 am 08:54 Mostly Sunny 43 6.1 18 -7.8 37 37 NW 20 31 30.06 1018 10 16 0.00 0.00
9:54 am 09:54 Mostly Sunny 45 7.2 18 -7.8 34 34 N 31 50 30.10 1019 10 16 0.00 0.00
10:54 am 10:54 Partly Cloudy 43 6.1 22 -5.6 43 43 N 33 54 30.14 1021 10 16 0.00 0.00
11:25 am 11:25 Partly Cloudy with Scattered Snow Showers 41 5 24 -4.4 51 51 N 37 59 30.10 1019 10 16 0.00 0.00
11:54 am 11:54 Mostly Cloudy with Light Snow 38 3.3 27 -2.8 65 65 N 32 52 30.18 1022 5 8 0.00 0.00
12:54 pm 12:54 Mostly Cloudy with Light Snow 39 3.9 25 -3.9 57 57 N 36 57 30.15 1021 6 10 0.00 0.00
1:54 pm 13:54 Partly Cloudy 38 3.3 21 -6.1 51 51 NNW 24 39 30.10 1019 8 13 0.00 0.00
2:44 pm 14:44 Partly Cloudy with Scattered Snow Showers 36 2.2 22 -5.6 57 57 NNW 30 48 30.17 1022 7 11 0.00 0.00
2:54 pm 14:54 Partly Cloudy with Scattered Snow Showers 36 2.2 22 -5.6 57 57 N 22 35 30.14 1021 7 11 0.00 0.00
3:16 pm 15:16 Mostly Sunny 36 2 19 -7 52 52 N 31 50 30.18 1022 7 11 0.00 0.00
3:54 pm 15:54 Partly Cloudy 34 1.1 20 -6.7 56 56 N 35 56 30.17 1022 7 11 0.00 0.00
4:54 pm 16:54 Partly Cloudy 31 -0.6 20 -6.7 64 64 NNW 21 33 30.24 1024 8 13 0.00 0.00
5:15 pm 17:15 Partly Cloudy with Scattered Snow Showers 30 -1.1 22 -5.6 72 72 NNW 20 31 30.35 1028 4 6 0.00 0.00
5:36 pm 17:36 Windy with Snow Likely 29 -1.7 22 -5.6 75 75 NNW 20 31 30.37 1028 2 3 0.00 0.00
5:54 pm 17:54 Windy with Snow Likely 29 -1.7 21 -6.1 72 72 N 20 31 30.33 1027 3 5 0.00 0.00
6:17 pm 18:17 Cloudy with Light Snow 29 -1.7 23 -5 78 78 NNW 13 20 30.41 1030 2 3 0.00 0.00
6:42 pm 18:42 Cloudy with Light Snow 28 -2.2 22 -5.6 78 78 N 17 28 30.43 1031 2 2 0.01 0.25
6:54 pm 18:54 Mostly Cloudy with Light Snow 28 -2.2 21 -6.1 75 75 NNW 17 28 30.37 1028 1 2 0.01 0.25
7:07 pm 19:07 Cloudy with Light Snow 29 -1.7 20 -6.7 69 69 NNW 17 28 30.43 1031 2 3 0.00 0.00
7:27 pm 19:27 Windy with Snow Likely 29 -1.7 17 -8.3 61 61 N 30 48 30.42 1030 3 5 0.00 0.00
7:54 pm 19:54 Mostly Cloudy with Light Snow 28 -2.2 16 -8.9 60 60 N 28 44 30.40 1029 4 6 0.00 0.00
8:54 pm 20:54 Mostly Cloudy with Light Snow 26 -3.3 16 -8.9 66 66 N 20 31 30.42 1030 5 8 0.00 0.00
9:54 pm 21:54 Mostly Cloudy with Light Snow 26 -3.3 16 -8.9 66 66 N 18 30 30.41 1030 4 6 0.00 0.00
10:54 pm 22:54 Mostly Cloudy with Light Snow 25 -3.9 15 -9.4 66 66 N 20 31 30.45 1031 3 5 0.00 0.00
11:54 pm 23:54 Mostly Cloudy with Light Snow 24 -4.4 16 -8.9 71 71 N 17 28 30.49 1032 6 10 0.00 0.00

Powered by AerisWeather